Location: Brachbach
(49.1847°N, 9.7240°E)
Time: 10:40:45
(UTC+00:00)

COSMOS 860 DEB - Pass Details

Date: 03 October 2024
Orbit: 890 x 988 km, 64.7° (Epoch: 09 November)

Event Time Altitude Azimuth Distance (km) Brightness Sun altitude
Rises 20:18:44 0° 320° (NW) 3,653 ? -32.4°
Reaches altitude 10° 20:21:21 10° 325° (NW) 2,717 ? -32.8°
Enters shadow 20:26:26 48° 6° (N) 1,264 ? -33.4°
